Wittman Regional Airport
KOSH : now visible

Airfield :











YOU CAN JOIN US ON...

 
LOGIN :

Register | Disclaimer

   EN    FR    IT 

 









Legend :    VFR   Marginal VFR   IFR   Intensive IFR   Very Intensive IFR
Visi :
Ceiling :
>= 8 km
>= 3000ft
5 to 8 km
1000 to 3000 ft
1500m to 5 km
500 to 1000 ft
800 to 1500m
200 to 500 ft
< 800m
< 200 ft
Symbols :   Thunderstorms  Fog  Heavy snow  Heavy precipitations  Wind > 20 kt






- Airport Elevation : 808 ft
- IATA code : OSH


KOSH - Wittman Regional

CURRENT METAR :
  • 161053Z 33005KT 10SM CLR 02/M01 A3001 RMK AO2 SLP171 T00171006

EXPIRED METARs :
  • 160953Z AUTO 32005KT 10SM CLR 02/00 A3001 RMK AO2 SLP170 T00220000
  • 160853Z AUTO 35005KT 10SM CLR 02/00 A3001 RMK AO2 SLP169 T00220000 57008

Expired Forecast.
KZAU FIR / North America



MET'MAP, your aeronautical weather chart ! - Copyright ORBIFLY December 2007 - Disclaimer

ORBIFLY MET'MAP TEAM :

Programming & Development : Alexandra Zaïnal
Concept & original design : Baudouin d'Aumeries
Assistance for programming : Marc-Olivier Méhu
Technical & hardware support : Manuel Goepfert

Contact : metmap@orbifly.com




SOURCES & CREDITS :

   NOAA       Earth
Advisory